Location: Cz?stochówka
(50.8142°N, 19.0915°E)
Time: 14:47:14
(UTC+00:00)

Cosmos 2366 rocket - Pass Details

Date: 12 April 2026
Orbit: 954 x 996 km, 82.9° (Epoch: 16 May)

Event Time Altitude Azimuth Distance (km) Brightness Sun altitude
Exits shadow 20:03:44 - 203° (SSW) 3,548 6.7 -20.9°
Reaches altitude 10° 20:06:03 10° 208° (SSW) 2,696 6.1 -21.2°
Maximum altitude 20:12:05 55° 285° (WNW) 1,147 4.6 -21.8°
Drops below altitude 10° 20:18:07 10° 3° (N) 2,697 6.9 -22.4°
Sets 20:20:41 0° 8° (N) 3,646 7.6 -22.7°
